Location: Caltech
(34.1382°N, 118.1253°W)
Time: 00:21:01
(UTC-07:00)

Iridium 95 - Visible Passes

Search period start: 06 May 2016 00:00
Search period end: 16 May 2016 00:00
Orbit: 776 x 779 km, 86.4° (Epoch: 05 May)

Date Brightness Start Highest point End Pass type
(mag) Time Alt. Az. Time Alt. Az. Time Alt. Az.
06 May 5.4 04:15:48 10° N 04:21:01 77° W 04:25:01 17° S visible
07 May 6.1 03:42:22 10° N 03:47:29 54° E 03:51:01 20° SSE visible
07 May 7.3 05:25:08 10° NW 05:27:38 14° W 05:30:08 10° WSW visible
08 May 7.3 03:09:23 10° NNE 03:13:51 28° E 03:17:05 16° SE visible
08 May 6.6 04:50:07 10° NNW 04:54:24 26° W 04:57:31 15° SW visible
09 May 8.1 02:37:13 10° NE 02:40:05 15° ENE 02:42:55 10° ESE visible
09 May 5.7 04:16:02 10° NNW 04:21:04 51° W 04:23:37 27° SSW visible
10 May 5.5 03:42:22 10° N 03:47:37 82° E 03:49:46 37° S visible
11 May 6.5 03:09:07 10° NNE 03:14:02 41° E 03:15:56 30° SE visible
11 May 7.0 04:50:56 10° NW 04:54:21 18° W 04:56:23 14° WSW visible
12 May 7.5 02:36:22 10° NNE 02:40:21 22° E 02:42:09 18° ESE visible
12 May 6.2 04:16:25 10° NNW 04:21:05 34° W 04:22:36 28° WSW visible
13 May 8.2 02:05:09 10° ENE 02:06:32 11° ENE 02:07:54 10° E visible
13 May 5.4 03:42:31 10° N 03:47:42 67° W 03:48:50 51° SSW visible
14 May 5.8 03:09:01 10° N 03:14:12 63° E 03:15:06 53° SE visible
14 May 7.4 04:52:29 10° WNW 04:54:15 12° WNW 04:55:33 11° W visible
15 May 6.9 02:35:55 10° NNE 02:40:35 32° E 02:41:23 30° E visible
15 May 6.7 04:17:01 10° NNW 04:21:03 23° W 04:21:50 22° W visible
